Time,TemperatureF,DewpointF,PressureIn,WindDirection,WindDirectionDegrees,WindSpeedMPH,WindSpeedGustMPH,Humidity,HourlyPrecipIn,Conditions,Clouds,dailyrainin,SoftwareType,DateUTC
2013-08-17 00:01:00,58.5,55.0,30.17,East,96,0.0,0.0,88,0.00,,CLR,0.00,VWS V14.01,2013-08-17 04:01:00,
2013-08-17 00:02:00,58.5,55.3,30.17,East,94,0.0,0.0,89,0.00,,CLR,0.00,VWS V14.01,2013-08-17 04:02:00,
2013-08-17 00:07:00,58.5,55.3,30.18,East,80,0.0,1.0,89,0.00,,CLR,0.00,VWS V14.01,2013-08-17 04:07:00,
2013-08-17 00:12:00,58.2,55.3,30.18,East,97,0.0,0.0,90,0.00,,CLR,0.00,VWS V14.01,2013-08-17 04:12:00,
2013-08-17 00:18:00,58.5,55.3,30.18,East,93,0.0,0.0,89,0.00,,CLR,0.00,VWS V14.01,2013-08-17 04:18:00,
2013-08-17 00:23:00,58.9,55.4,30.17,East,82,0.0,1.0,88,0.00,,CLR,0.00,VWS V14.01,2013-08-17 04:23:00,
2013-08-17 00:28:00,58.9,55.4,30.18,East,82,0.0,1.0,88,0.00,,CLR,0.00,VWS V14.01,2013-08-17 04:28:00,
2013-08-17 00:33:00,59.5,55.6,30.17,East,82,0.0,0.0,87,0.00,,CLR,0.00,VWS V14.01,2013-08-17 04:33:00,
2013-08-17 00:38:00,58.4,54.9,30.18,SE,128,0.0,2.0,88,0.00,,CLR,0.00,VWS V14.01,2013-08-17 04:38:00,
2013-08-17 00:43:00,57.9,55.6,30.18,ESE,105,0.0,0.0,92,0.00,,CLR,0.00,VWS V14.01,2013-08-17 04:43:00,
2013-08-17 00:48:00,59.1,56.8,30.18,East,92,0.0,2.0,92,0.00,,CLR,0.00,VWS V14.01,2013-08-17 04:48:00,
2013-08-17 00:53:00,60.2,57.3,30.18,ESE,105,0.0,2.0,90,0.00,,CLR,0.00,VWS V14.01,2013-08-17 04:53:00,
2013-08-17 00:58:00,60.8,57.5,30.18,ESE,104,0.0,0.0,89,0.00,,CLR,0.00,VWS V14.01,2013-08-17 04:58:00,
2013-08-17 01:03:00,61.2,57.6,30.18,ESE,110,0.0,1.0,88,0.00,,CLR,0.00,VWS V14.01,2013-08-17 05:03:00,
2013-08-17 01:09:00,61.1,57.2,30.19,ESE,110,0.0,0.0,87,0.00,,,0.00,VWS V14.01,2013-08-17 05:09:00,
2013-08-17 01:13:00,60.7,57.1,30.19,ESE,110,0.0,0.0,88,0.00,,,0.00,VWS V14.01,2013-08-17 05:13:00,
2013-08-17 01:19:00,60.2,57.0,30.19,ESE,110,0.0,0.0,89,0.00,,,0.00,VWS V14.01,2013-08-17 05:19:00,
2013-08-17 01:24:00,59.9,56.7,30.19,ESE,110,0.0,0.0,89,0.00,,,0.00,VWS V14.01,2013-08-17 05:24:00,
2013-08-17 01:29:00,59.6,56.7,30.19,ESE,110,0.0,0.0,90,0.00,,,0.00,VWS V14.01,2013-08-17 05:29:00,
2013-08-17 01:34:00,59.2,56.6,30.19,ESE,110,0.0,0.0,91,0.00,,,0.00,VWS V14.01,2013-08-17 05:34:00,
2013-08-17 01:39:00,59.0,56.4,30.19,ESE,110,0.0,0.0,91,0.00,,,0.00,VWS V14.01,2013-08-17 05:39:00,
2013-08-17 01:44:00,58.8,56.5,30.20,ESE,110,0.0,0.0,92,0.00,,,0.00,VWS V14.01,2013-08-17 05:44:00,
2013-08-17 01:49:00,58.6,56.3,30.20,NW,316,0.0,0.0,92,0.00,,,0.00,VWS V14.01,2013-08-17 05:49:00,
2013-08-17 01:54:00,58.3,56.0,30.20,NW,316,0.0,0.0,92,0.00,,,0.00,VWS V14.01,2013-08-17 05:54:00,
2013-08-17 01:59:00,58.2,56.2,30.20,NW,316,0.0,0.0,93,0.00,,,0.00,VWS V14.01,2013-08-17 05:59:00,
2013-08-17 02:04:00,58.5,56.5,30.20,NW,316,0.0,0.0,93,0.00,,CLR,0.00,VWS V14.01,2013-08-17 06:04:00,
2013-08-17 02:09:00,58.8,56.8,30.20,East,84,0.0,0.0,93,0.00,,CLR,0.00,VWS V14.01,2013-08-17 06:09:00,
2013-08-17 02:14:00,59.0,56.7,30.20,East,81,0.0,1.0,92,0.00,,CLR,0.00,VWS V14.01,2013-08-17 06:14:00,
2013-08-17 02:19:00,59.1,56.8,30.20,East,94,0.0,1.0,92,0.00,,CLR,0.00,VWS V14.01,2013-08-17 06:19:00,
2013-08-17 02:25:00,59.1,56.8,30.20,East,101,0.0,0.0,92,0.00,,CLR,0.00,VWS V14.01,2013-08-17 06:25:00,
2013-08-17 02:30:00,58.9,56.6,30.20,ESE,108,0.0,1.0,92,0.00,,CLR,0.00,VWS V14.01,2013-08-17 06:30:00,
2013-08-17 02:35:00,59.3,57.0,30.20,East,98,0.0,1.0,92,0.00,,CLR,0.00,VWS V14.01,2013-08-17 06:35:00,
2013-08-17 02:40:00,59.5,56.9,30.20,East,99,0.0,0.0,91,0.00,,CLR,0.00,VWS V14.01,2013-08-17 06:40:00,
2013-08-17 02:45:00,59.2,56.6,30.20,North,8,0.0,0.0,91,0.00,,CLR,0.00,VWS V14.01,2013-08-17 06:45:00,
2013-08-17 02:50:00,58.8,56.2,30.20,North,8,0.0,0.0,91,0.00,,CLR,0.00,VWS V14.01,2013-08-17 06:50:00,
2013-08-17 02:55:00,58.8,56.5,30.20,NNE,14,0.0,0.0,92,0.00,,CLR,0.00,VWS V14.01,2013-08-17 06:55:00,
2013-08-17 03:00:00,58.6,56.3,30.20,North,8,0.0,0.0,92,0.00,,CLR,0.00,VWS V14.01,2013-08-17 07:00:00,
2013-08-17 03:05:00,58.2,55.9,30.20,North,8,0.0,0.0,92,0.00,,CLR,0.00,VWS V14.01,2013-08-17 07:05:00,
2013-08-17 03:10:00,57.7,55.7,30.20,ESE,107,0.0,0.0,93,0.00,,CLR,0.00,VWS V14.01,2013-08-17 07:10:00,
2013-08-17 03:15:00,57.0,55.3,30.20,SE,134,0.0,0.0,94,0.00,,CLR,0.00,VWS V14.01,2013-08-17 07:15:00,
2013-08-17 03:20:00,56.5,55.1,30.20,SE,124,0.0,0.0,95,0.00,,CLR,0.00,VWS V14.01,2013-08-17 07:20:00,
2013-08-17 03:25:00,56.7,55.6,30.20,SE,124,0.0,0.0,96,0.00,,CLR,0.00,VWS V14.01,2013-08-17 07:25:00,
2013-08-17 03:30:00,56.4,55.3,30.20,SE,124,0.0,0.0,96,0.00,,CLR,0.00,VWS V14.01,2013-08-17 07:30:00,
2013-08-17 03:36:00,56.1,55.0,30.20,SE,124,0.0,0.0,96,0.00,,CLR,0.00,VWS V14.01,2013-08-17 07:36:00,
2013-08-17 03:41:00,55.9,54.8,30.20,SE,124,0.0,0.0,96,0.00,,CLR,0.00,VWS V14.01,2013-08-17 07:41:00,
2013-08-17 03:46:00,55.8,55.0,30.20,NW,322,0.0,0.0,97,0.00,,CLR,0.00,VWS V14.01,2013-08-17 07:46:00,
2013-08-17 03:51:00,55.7,54.9,30.21,NW,322,0.0,0.0,97,0.00,,CLR,0.00,VWS V14.01,2013-08-17 07:51:00,
2013-08-17 03:56:00,55.6,54.8,30.20,NW,322,0.0,0.0,97,0.00,,CLR,0.00,VWS V14.01,2013-08-17 07:56:00,
2013-08-17 04:01:00,55.9,55.1,30.20,ENE,58,0.0,0.0,97,0.00,,CLR,0.00,VWS V14.01,2013-08-17 08:01:00,
2013-08-17 04:06:00,55.8,55.0,30.20,East,85,0.0,0.0,97,0.00,,CLR,0.00,VWS V14.01,2013-08-17 08:06:00,
2013-08-17 04:11:00,55.7,54.9,30.20,East,82,0.0,0.0,97,0.00,,CLR,0.00,VWS V14.01,2013-08-17 08:11:00,
2013-08-17 04:16:00,56.0,55.5,30.20,East,82,0.0,0.0,98,0.00,,CLR,0.00,VWS V14.01,2013-08-17 08:16:00,
2013-08-17 04:21:00,55.7,54.9,30.20,East,82,0.0,0.0,97,0.00,,CLR,0.00,VWS V14.01,2013-08-17 08:21:00,
2013-08-17 04:26:00,55.4,54.6,30.20,East,82,0.0,0.0,97,0.00,,CLR,0.00,VWS V14.01,2013-08-17 08:26:00,
2013-08-17 04:31:00,55.1,54.3,30.20,East,82,0.0,0.0,97,0.00,,CLR,0.00,VWS V14.01,2013-08-17 08:31:00,
2013-08-17 04:36:00,54.9,54.3,30.20,East,82,0.0,0.0,98,0.00,,CLR,0.00,VWS V14.01,2013-08-17 08:36:00,
2013-08-17 04:42:00,54.9,54.3,30.20,East,82,0.0,0.0,98,0.00,,CLR,0.00,VWS V14.01,2013-08-17 08:42:00,
2013-08-17 04:47:00,54.6,54.0,30.21,East,82,0.0,0.0,98,0.00,,CLR,0.00,VWS V14.01,2013-08-17 08:47:00,
2013-08-17 04:52:00,54.4,53.8,30.21,East,82,0.0,0.0,98,0.00,,CLR,0.00,VWS V14.01,2013-08-17 08:52:00,
2013-08-17 04:57:00,54.3,53.8,30.21,East,82,0.0,0.0,98,0.00,,CLR,0.00,VWS V14.01,2013-08-17 08:57:00,
2013-08-17 05:02:00,54.3,53.8,30.21,East,84,0.0,0.0,98,0.00,,CLR,0.00,VWS V14.01,2013-08-17 09:02:00,
2013-08-17 05:07:00,54.5,54.0,30.21,East,84,0.0,0.0,98,0.00,,CLR,0.00,VWS V14.01,2013-08-17 09:07:00,
2013-08-17 05:12:00,54.7,54.4,30.21,East,82,0.0,0.0,99,0.00,,CLR,0.00,VWS V14.01,2013-08-17 09:12:00,
2013-08-17 05:17:00,54.7,54.2,30.21,East,82,0.0,0.0,98,0.00,,CLR,0.00,VWS V14.01,2013-08-17 09:17:00,
2013-08-17 05:22:00,54.7,54.4,30.21,East,82,0.0,0.0,99,0.00,,CLR,0.00,VWS V14.01,2013-08-17 09:22:00,
2013-08-17 05:27:00,54.6,54.0,30.21,East,82,0.0,0.0,98,0.00,,CLR,0.00,VWS V14.01,2013-08-17 09:27:00,
2013-08-17 05:32:00,54.5,54.2,30.22,East,82,0.0,0.0,99,0.00,,CLR,0.00,VWS V14.01,2013-08-17 09:32:00,
2013-08-17 05:37:00,54.2,53.7,30.22,East,84,0.0,0.0,98,0.00,,CLR,0.00,VWS V14.01,2013-08-17 09:37:00,
2013-08-17 05:43:00,54.0,53.5,30.21,East,83,0.0,0.0,98,0.00,,CLR,0.00,VWS V14.01,2013-08-17 09:43:00,
2013-08-17 05:48:00,54.0,53.5,30.22,East,84,0.0,0.0,98,0.00,,CLR,0.00,VWS V14.01,2013-08-17 09:48:00,
2013-08-17 05:53:00,53.9,53.3,30.22,East,84,0.0,0.0,98,0.00,,CLR,0.00,VWS V14.01,2013-08-17 09:53:00,
2013-08-17 05:58:00,54.1,53.8,30.22,East,83,0.0,0.0,99,0.00,,CLR,0.00,VWS V14.01,2013-08-17 09:58:00,
2013-08-17 06:03:00,54.5,54.2,30.22,East,84,0.0,0.0,99,0.00,,CLR,0.00,VWS V14.01,2013-08-17 10:03:00,
2013-08-17 06:08:00,54.7,54.4,30.22,East,83,0.0,0.0,99,0.00,,,0.00,VWS V14.01,2013-08-17 10:08:00,
2013-08-17 06:13:00,54.9,54.6,30.22,East,84,0.0,0.0,99,0.00,,,0.00,VWS V14.01,2013-08-17 10:13:00,
2013-08-17 06:18:00,54.9,54.6,30.22,East,84,0.0,0.0,99,0.00,,,0.00,VWS V14.01,2013-08-17 10:18:00,
2013-08-17 06:23:00,55.1,54.8,30.22,East,84,0.0,0.0,99,0.00,,,0.00,VWS V14.01,2013-08-17 10:23:00,
2013-08-17 06:28:00,54.9,54.6,30.22,East,83,0.0,0.0,99,0.00,,,0.00,VWS V14.01,2013-08-17 10:28:00,
2013-08-17 06:33:00,54.7,54.4,30.23,East,84,0.0,0.0,99,0.00,,,0.00,VWS V14.01,2013-08-17 10:33:00,
2013-08-17 06:38:00,54.9,54.6,30.23,East,83,0.0,0.0,99,0.00,,,0.00,VWS V14.01,2013-08-17 10:38:00,
2013-08-17 06:43:00,55.1,54.8,30.23,East,82,0.0,0.0,99,0.00,,,0.00,VWS V14.01,2013-08-17 10:43:00,
2013-08-17 06:49:00,55.3,55.0,30.23,East,82,0.0,0.0,99,0.00,,,0.00,VWS V14.01,2013-08-17 10:49:00,
2013-08-17 06:54:00,55.6,55.3,30.23,East,82,0.0,0.0,99,0.00,,,0.00,VWS V14.01,2013-08-17 10:54:00,
2013-08-17 06:59:00,56.0,55.7,30.23,East,84,0.0,0.0,99,0.00,,,0.00,VWS V14.01,2013-08-17 10:59:00,
2013-08-17 07:04:00,56.2,55.9,30.23,East,82,0.0,0.0,99,0.00,,,0.00,VWS V14.01,2013-08-17 11:04:00,
2013-08-17 07:09:00,56.0,55.7,30.23,East,84,0.0,0.0,99,0.00,,,0.00,VWS V14.01,2013-08-17 11:09:00,
2013-08-17 07:14:00,56.3,56.0,30.23,East,83,0.0,0.0,99,0.00,,,0.00,VWS V14.01,2013-08-17 11:14:00,
2013-08-17 07:19:00,57.0,56.7,30.23,East,82,0.0,0.0,99,0.00,,,0.00,VWS V14.01,2013-08-17 11:19:00,
2013-08-17 07:24:00,57.6,57.3,30.23,East,82,0.0,0.0,99,0.00,,,0.00,VWS V14.01,2013-08-17 11:24:00,
2013-08-17 07:29:00,57.9,57.6,30.23,East,83,0.0,0.0,99,0.00,,,0.00,VWS V14.01,2013-08-17 11:29:00,
2013-08-17 07:34:00,58.4,58.1,30.23,East,84,0.0,0.0,99,0.00,,,0.00,VWS V14.01,2013-08-17 11:34:00,
2013-08-17 07:39:00,59.1,58.8,30.23,East,84,0.0,0.0,99,0.00,,,0.00,VWS V14.01,2013-08-17 11:39:00,
2013-08-17 07:44:00,59.9,59.6,30.23,East,84,0.0,0.0,99,0.00,,,0.00,VWS V14.01,2013-08-17 11:44:00,
2013-08-17 07:49:00,60.7,60.4,30.23,East,83,0.0,0.0,99,0.00,,,0.00,VWS V14.01,2013-08-17 11:49:00,
2013-08-17 07:55:00,61.0,60.7,30.23,East,83,0.0,0.0,99,0.00,,,0.00,VWS V14.01,2013-08-17 11:55:00,
2013-08-17 08:00:00,61.1,60.2,30.23,East,83,0.0,0.0,97,0.00,,,0.00,VWS V14.01,2013-08-17 12:00:00,
2013-08-17 08:05:00,61.2,60.0,30.23,East,83,0.0,0.0,96,0.00,,,0.00,VWS V14.01,2013-08-17 12:05:00,
2013-08-17 08:06:00,61.3,60.2,30.23,East,84,0.0,0.0,96,0.00,,,0.00,VWS V14.01,2013-08-17 12:06:00,
2013-08-17 08:11:00,61.7,60.3,30.23,East,83,0.0,0.0,95,0.00,,,0.00,VWS V14.01,2013-08-17 12:11:00,
2013-08-17 08:16:00,62.1,60.4,30.23,East,83,0.0,0.0,94,0.00,,,0.00,VWS V14.01,2013-08-17 12:16:00,
2013-08-17 08:21:00,62.5,60.5,30.23,East,84,0.0,0.0,93,0.00,,,0.00,VWS V14.01,2013-08-17 12:21:00,
2013-08-17 08:26:00,63.1,60.7,30.24,East,84,0.0,0.0,92,0.00,,,0.00,VWS V14.01,2013-08-17 12:26:00,
2013-08-17 08:31:00,63.8,60.8,30.24,East,83,0.0,0.0,90,0.00,,,0.00,VWS V14.01,2013-08-17 12:31:00,
2013-08-17 08:36:00,64.0,60.4,30.24,East,83,0.0,0.0,88,0.00,,,0.00,VWS V14.01,2013-08-17 12:36:00,
2013-08-17 08:41:00,64.3,61.0,30.24,East,85,0.0,0.0,89,0.00,,,0.00,VWS V14.01,2013-08-17 12:41:00,
2013-08-17 08:46:00,64.9,61.3,30.24,East,85,0.0,0.0,88,0.00,,,0.00,VWS V14.01,2013-08-17 12:46:00,
2013-08-17 08:51:00,65.5,61.5,30.24,East,85,0.0,0.0,87,0.00,,,0.00,VWS V14.01,2013-08-17 12:51:00,
2013-08-17 08:56:00,66.4,62.4,30.24,East,89,0.0,0.0,87,0.00,,,0.00,VWS V14.01,2013-08-17 12:56:00,
2013-08-17 09:01:00,67.5,63.2,30.24,East,89,0.0,0.0,86,0.00,,,0.00,VWS V14.01,2013-08-17 13:01:00,
2013-08-17 09:06:00,67.8,61.8,30.24,NW,324,0.0,0.0,81,0.00,,,0.00,VWS V14.01,2013-08-17 13:06:00,
2013-08-17 09:12:00,67.9,61.9,30.24,NW,325,0.0,0.0,81,0.00,,,0.00,VWS V14.01,2013-08-17 13:12:00,
2013-08-17 09:17:00,68.4,61.6,30.24,WSW,237,0.0,0.0,79,0.00,,,0.00,VWS V14.01,2013-08-17 13:17:00,
2013-08-17 09:22:00,68.1,61.7,30.25,WSW,256,0.0,0.0,80,0.00,,,0.00,VWS V14.01,2013-08-17 13:22:00,
2013-08-17 09:27:00,68.3,62.6,30.24,WSW,246,0.0,0.0,82,0.00,,,0.00,VWS V14.01,2013-08-17 13:27:00,
2013-08-17 09:32:00,68.5,61.0,30.25,NW,319,0.0,1.0,77,0.00,,,0.00,VWS V14.01,2013-08-17 13:32:00,
2013-08-17 09:37:00,68.9,61.8,30.25,NW,326,0.0,0.0,78,0.00,,,0.00,VWS V14.01,2013-08-17 13:37:00,
2013-08-17 09:42:00,70.1,61.4,30.24,NNW,338,0.0,1.0,74,0.00,,,0.00,VWS V14.01,2013-08-17 13:42:00,
2013-08-17 09:47:00,70.2,61.9,30.24,WNW,295,0.0,1.0,75,0.00,,,0.00,VWS V14.01,2013-08-17 13:47:00,
2013-08-17 09:52:00,70.4,61.3,30.24,NNW,342,0.0,1.0,73,0.00,,,0.00,VWS V14.01,2013-08-17 13:52:00,
2013-08-17 09:57:00,70.7,61.6,30.24,NNW,335,0.0,1.0,73,0.00,,,0.00,VWS V14.01,2013-08-17 13:57:00,
2013-08-17 10:03:00,71.1,62.0,30.24,WNW,297,0.0,1.0,73,0.00,,,0.00,VWS V14.01,2013-08-17 14:03:00,
2013-08-17 10:08:00,71.6,61.7,30.25,West,262,0.0,1.0,71,0.00,,CLR,0.00,VWS V14.01,2013-08-17 14:08:00,
2013-08-17 10:13:00,72.5,61.8,30.25,East,101,2.0,5.0,69,0.00,,CLR,0.00,VWS V14.01,2013-08-17 14:13:00,
2013-08-17 10:18:00,72.1,59.7,30.25,ENE,75,2.0,4.0,65,0.00,,CLR,0.00,VWS V14.01,2013-08-17 14:18:00,
2013-08-17 10:23:00,71.9,60.4,30.25,ENE,70,0.0,4.0,67,0.00,,CLR,0.00,VWS V14.01,2013-08-17 14:23:00,
2013-08-17 10:28:00,72.2,61.1,30.25,ENE,73,0.0,5.0,68,0.00,,CLR,0.00,VWS V14.01,2013-08-17 14:28:00,
2013-08-17 10:33:00,73.3,61.3,30.25,NW,315,0.0,2.0,66,0.00,,CLR,0.00,VWS V14.01,2013-08-17 14:33:00,
2013-08-17 10:38:00,74.1,61.6,30.25,NW,317,1.0,3.0,65,0.00,,CLR,0.00,VWS V14.01,2013-08-17 14:38:00,
2013-08-17 10:43:00,74.1,61.6,30.25,NNW,328,0.0,5.0,65,0.00,,CLR,0.00,VWS V14.01,2013-08-17 14:43:00,
2013-08-17 10:48:00,74.0,62.4,30.25,East,88,4.0,6.0,67,0.00,,CLR,0.00,VWS V14.01,2013-08-17 14:48:00,
2013-08-17 10:53:00,73.8,60.4,30.25,NNW,338,1.0,4.0,63,0.00,,CLR,0.00,VWS V14.01,2013-08-17 14:53:00,
2013-08-17 10:58:00,74.5,60.2,30.25,North,359,0.0,4.0,61,0.00,,CLR,0.00,VWS V14.01,2013-08-17 14:58:00,
2013-08-17 11:04:00,74.9,61.5,30.25,ESE,109,0.0,5.0,63,0.00,,CLR,0.00,VWS V14.01,2013-08-17 15:04:00,
2013-08-17 11:09:00,74.9,61.5,30.25,NW,322,1.0,7.0,63,0.00,,CLR,0.00,VWS V14.01,2013-08-17 15:09:00,
2013-08-17 11:14:00,75.2,60.4,30.25,ENE,71,2.0,5.0,60,0.00,,CLR,0.00,VWS V14.01,2013-08-17 15:14:00,
2013-08-17 11:19:00,75.3,61.8,30.25,NW,314,0.0,2.0,63,0.00,,CLR,0.00,VWS V14.01,2013-08-17 15:19:00,
2013-08-17 11:24:00,76.1,62.2,30.25,ENE,62,1.0,3.0,62,0.00,,CLR,0.00,VWS V14.01,2013-08-17 15:24:00,
2013-08-17 11:29:00,75.5,62.0,30.25,ESE,107,4.0,6.0,63,0.00,,CLR,0.00,VWS V14.01,2013-08-17 15:29:00,
2013-08-17 11:34:00,74.9,61.0,30.25,NE,37,1.0,6.0,62,0.00,,CLR,0.00,VWS V14.01,2013-08-17 15:34:00,
2013-08-17 11:39:00,75.4,61.0,30.25,ENE,76,4.0,4.0,61,0.00,,CLR,0.00,VWS V14.01,2013-08-17 15:39:00,
2013-08-17 11:44:00,75.2,60.8,30.24,ENE,60,2.0,6.0,61,0.00,,CLR,0.00,VWS V14.01,2013-08-17 15:44:00,
2013-08-17 11:49:00,75.9,60.6,30.24,East,79,0.0,4.0,59,0.00,,CLR,0.00,VWS V14.01,2013-08-17 15:49:00,
2013-08-17 11:54:00,77.3,60.9,30.24,NNW,346,0.0,2.0,57,0.00,,CLR,0.00,VWS V14.01,2013-08-17 15:54:00,
2013-08-17 11:59:00,77.8,60.9,30.24,East,84,4.0,4.0,56,0.00,,CLR,0.00,VWS V14.01,2013-08-17 15:59:00,
2013-08-17 12:05:00,76.9,60.5,30.24,ENE,75,2.0,5.0,57,0.00,,CLR,0.00,VWS V14.01,2013-08-17 16:05:00,
2013-08-17 12:10:00,77.8,60.9,30.24,ENE,72,3.0,3.0,56,0.00,,CLR,0.00,VWS V14.01,2013-08-17 16:10:00,
2013-08-17 12:15:00,76.8,60.4,30.24,ESE,113,1.0,5.0,57,0.00,,CLR,0.00,VWS V14.01,2013-08-17 16:15:00,
2013-08-17 12:20:00,76.8,60.9,30.24,NNE,12,0.0,2.0,58,0.00,,CLR,0.00,VWS V14.01,2013-08-17 16:20:00,
2013-08-17 12:25:00,77.2,61.3,30.24,ESE,113,1.0,2.0,58,0.00,,CLR,0.00,VWS V14.01,2013-08-17 16:25:00,
2013-08-17 12:30:00,77.2,60.3,30.24,WSW,248,0.0,3.0,56,0.00,,CLR,0.00,VWS V14.01,2013-08-17 16:30:00,
2013-08-17 12:35:00,78.3,59.2,30.24,ESE,114,0.0,1.0,52,0.00,,CLR,0.00,VWS V14.01,2013-08-17 16:35:00,
2013-08-17 12:40:00,78.9,60.3,30.24,East,101,2.0,5.0,53,0.00,,CLR,0.00,VWS V14.01,2013-08-17 16:40:00,
2013-08-17 12:45:00,77.9,58.3,30.24,ESE,110,3.0,5.0,51,0.00,,CLR,0.00,VWS V14.01,2013-08-17 16:45:00,
2013-08-17 12:50:00,78.4,61.4,30.23,East,89,3.0,6.0,56,0.00,,CLR,0.00,VWS V14.01,2013-08-17 16:50:00,
2013-08-17 12:55:00,77.6,58.6,30.23,SE,145,4.0,6.0,52,0.00,,CLR,0.00,VWS V14.01,2013-08-17 16:55:00,
2013-08-17 13:00:00,77.3,58.3,30.23,SE,136,2.0,7.0,52,0.00,,CLR,0.00,VWS V14.01,2013-08-17 17:00:00,
2013-08-17 13:05:00,77.2,59.8,30.23,ESE,105,7.0,7.0,55,0.00,,CLR,0.00,VWS V14.01,2013-08-17 17:05:00,
2013-08-17 13:10:00,76.7,59.8,30.23,ENE,71,0.0,3.0,56,0.00,,CLR,0.00,VWS V14.01,2013-08-17 17:10:00,
2013-08-17 13:15:00,76.8,59.9,30.22,East,93,4.0,5.0,56,0.00,,CLR,0.00,VWS V14.01,2013-08-17 17:15:00,
2013-08-17 13:20:00,76.9,59.0,30.23,SSE,167,2.0,3.0,54,0.00,,CLR,0.00,VWS V14.01,2013-08-17 17:20:00,
2013-08-17 13:25:00,77.6,59.7,30.22,East,96,4.0,4.0,54,0.00,,CLR,0.00,VWS V14.01,2013-08-17 17:25:00,
2013-08-17 13:30:00,77.1,57.6,30.22,East,91,1.0,1.0,51,0.00,,CLR,0.00,VWS V14.01,2013-08-17 17:30:00,
2013-08-17 13:35:00,77.8,58.8,30.23,NE,51,1.0,3.0,52,0.00,,CLR,0.00,VWS V14.01,2013-08-17 17:35:00,
2013-08-17 13:40:00,78.0,59.0,30.22,SE,128,0.0,1.0,52,0.00,,CLR,0.00,VWS V14.01,2013-08-17 17:40:00,
2013-08-17 13:45:00,79.3,61.2,30.22,East,94,2.0,6.0,54,0.00,,CLR,0.00,VWS V14.01,2013-08-17 17:45:00,
2013-08-17 13:50:00,78.3,58.2,30.23,ESE,113,0.0,2.0,50,0.00,,CLR,0.00,VWS V14.01,2013-08-17 17:50:00,
2013-08-17 13:55:00,78.6,59.0,30.22,South,173,2.0,2.0,51,0.00,,CLR,0.00,VWS V14.01,2013-08-17 17:55:00,
2013-08-17 14:01:00,78.6,58.4,30.22,ESE,103,0.0,3.0,50,0.00,,CLR,0.00,VWS V14.01,2013-08-17 18:01:00,
2013-08-17 14:06:00,79.2,60.1,30.22,SE,138,1.0,2.0,52,0.00,,CLR,0.00,VWS V14.01,2013-08-17 18:06:00,
2013-08-17 14:11:00,80.4,61.7,30.22,NW,308,3.0,3.0,53,0.00,,CLR,0.00,VWS V14.01,2013-08-17 18:11:00,
2013-08-17 14:16:00,80.9,59.4,30.22,SE,142,3.0,4.0,48,0.00,,CLR,0.00,VWS V14.01,2013-08-17 18:16:00,
2013-08-17 14:21:00,79.8,59.0,30.22,East,84,0.0,1.0,49,0.00,,CLR,0.00,VWS V14.01,2013-08-17 18:21:00,
2013-08-17 14:26:00,78.5,60.0,30.22,ENE,72,1.0,3.0,53,0.00,,CLR,0.00,VWS V14.01,2013-08-17 18:26:00,
2013-08-17 14:31:00,78.5,61.0,30.22,East,92,3.0,3.0,55,0.00,,CLR,0.00,VWS V14.01,2013-08-17 18:31:00,
2013-08-17 14:36:00,77.2,61.3,30.22,East,100,1.0,2.0,58,0.00,,CLR,0.00,VWS V14.01,2013-08-17 18:36:00,
2013-08-17 14:41:00,76.5,59.2,30.22,SE,128,3.0,4.0,55,0.00,,CLR,0.00,VWS V14.01,2013-08-17 18:41:00,
2013-08-17 14:46:00,76.2,58.9,30.22,ESE,113,1.0,3.0,55,0.00,,CLR,0.00,VWS V14.01,2013-08-17 18:46:00,
2013-08-17 14:51:00,76.2,59.4,30.22,ESE,121,0.0,1.0,56,0.00,,CLR,0.00,VWS V14.01,2013-08-17 18:51:00,
2013-08-17 14:56:00,77.7,58.7,30.21,South,179,0.0,0.0,52,0.00,,CLR,0.00,VWS V14.01,2013-08-17 18:56:00,
2013-08-17 15:01:00,78.6,57.9,30.21,ESE,121,0.0,1.0,49,0.00,,CLR,0.00,VWS V14.01,2013-08-17 19:01:00,
2013-08-17 15:07:00,79.7,58.9,30.21,SSE,165,0.0,2.0,49,0.00,,SCT060,0.00,VWS V14.01,2013-08-17 19:07:00,
2013-08-17 15:12:00,80.4,60.6,30.21,ENE,75,3.0,3.0,51,0.00,,SCT060,0.00,VWS V14.01,2013-08-17 19:12:00,
2013-08-17 15:17:00,79.9,60.2,30.21,East,94,3.0,4.0,51,0.00,,SCT060,0.00,VWS V14.01,2013-08-17 19:17:00,
2013-08-17 15:22:00,78.9,58.7,30.21,ENE,71,2.0,3.0,50,0.00,,SCT060,0.00,VWS V14.01,2013-08-17 19:22:00,
2013-08-17 15:27:00,78.5,57.8,30.20,ESE,113,5.0,5.0,49,0.00,,SCT060,0.00,VWS V14.01,2013-08-17 19:27:00,
2013-08-17 15:32:00,78.2,57.5,30.20,SE,135,3.0,5.0,49,0.00,,SCT060,0.00,VWS V14.01,2013-08-17 19:32:00,
2013-08-17 15:37:00,78.5,58.9,30.20,ESE,117,2.0,3.0,51,0.00,,SCT060,0.00,VWS V14.01,2013-08-17 19:37:00,
2013-08-17 15:42:00,78.2,58.1,30.21,ESE,122,2.0,6.0,50,0.00,,SCT060,0.00,VWS V14.01,2013-08-17 19:42:00,
2013-08-17 15:47:00,78.3,58.2,30.21,SSE,159,0.0,3.0,50,0.00,,SCT060,0.00,VWS V14.01,2013-08-17 19:47:00,
2013-08-17 15:52:00,78.8,59.2,30.21,ESE,117,0.0,2.0,51,0.00,,SCT060,0.00,VWS V14.01,2013-08-17 19:52:00,
2013-08-17 15:57:00,78.5,58.3,30.20,SE,137,1.0,4.0,50,0.00,,SCT060,0.00,VWS V14.01,2013-08-17 19:57:00,
2013-08-17 16:03:00,78.7,58.0,30.20,SE,141,3.0,4.0,49,0.00,,SCT060,0.00,VWS V14.01,2013-08-17 20:03:00,
2013-08-17 16:08:00,78.8,58.6,30.20,SSW,200,4.0,4.0,50,0.00,,SCT060,0.00,VWS V14.01,2013-08-17 20:08:00,
2013-08-17 16:13:00,78.8,61.3,30.20,East,99,4.0,5.0,55,0.00,,SCT060,0.00,VWS V14.01,2013-08-17 20:13:00,
2013-08-17 16:18:00,78.6,59.5,30.20,ESE,103,2.0,4.0,52,0.00,,SCT060,0.00,VWS V14.01,2013-08-17 20:18:00,
2013-08-17 16:23:00,78.6,59.5,30.20,ESE,113,0.0,3.0,52,0.00,,SCT060,0.00,VWS V14.01,2013-08-17 20:23:00,
2013-08-17 16:28:00,78.3,58.7,30.20,ESE,120,1.0,3.0,51,0.00,,SCT060,0.00,VWS V14.01,2013-08-17 20:28:00,
2013-08-17 16:33:00,78.5,57.8,30.20,SE,145,0.0,3.0,49,0.00,,SCT060,0.00,VWS V14.01,2013-08-17 20:33:00,
2013-08-17 16:38:00,79.1,59.4,30.20,SE,131,1.0,2.0,51,0.00,,SCT060,0.00,VWS V14.01,2013-08-17 20:38:00,
2013-08-17 16:43:00,79.0,59.3,30.20,East,98,4.0,7.0,51,0.00,,SCT060,0.00,VWS V14.01,2013-08-17 20:43:00,
2013-08-17 16:48:00,78.4,60.4,30.20,East,98,3.0,5.0,54,0.00,,SCT060,0.00,VWS V14.01,2013-08-17 20:48:00,
2013-08-17 16:53:00,77.6,60.2,30.20,ENE,71,3.0,6.0,55,0.00,,SCT060,0.00,VWS V14.01,2013-08-17 20:53:00,
2013-08-17 16:58:00,77.2,59.8,30.20,ESE,117,2.0,5.0,55,0.00,,SCT060,0.00,VWS V14.01,2013-08-17 20:58:00,
2013-08-17 17:04:00,76.8,59.4,30.20,East,92,1.0,5.0,55,0.00,,BKN060,0.00,VWS V14.01,2013-08-17 21:04:00,
2013-08-17 17:09:00,76.6,58.7,30.20,East,101,2.0,3.0,54,0.00,,BKN060,0.00,VWS V14.01,2013-08-17 21:09:00,
2013-08-17 17:14:00,76.5,59.7,30.20,ESE,114,1.0,2.0,56,0.00,,BKN060,0.00,VWS V14.01,2013-08-17 21:14:00,
2013-08-17 17:19:00,76.5,59.7,30.20,ESE,113,1.0,2.0,56,0.00,,BKN060,0.00,VWS V14.01,2013-08-17 21:19:00,
2013-08-17 17:24:00,76.6,60.2,30.20,ESE,115,1.0,3.0,57,0.00,,BKN060,0.00,VWS V14.01,2013-08-17 21:24:00,
2013-08-17 17:29:00,76.4,61.5,30.20,ESE,110,0.0,2.0,60,0.00,,BKN060,0.00,VWS V14.01,2013-08-17 21:29:00,
2013-08-17 17:34:00,76.3,60.5,30.20,ESE,117,0.0,1.0,58,0.00,,BKN060,0.00,VWS V14.01,2013-08-17 21:34:00,
2013-08-17 17:39:00,76.4,62.4,30.20,ESE,120,0.0,1.0,62,0.00,,BKN060,0.00,VWS V14.01,2013-08-17 21:39:00,
2013-08-17 17:44:00,76.6,63.5,30.20,ESE,110,0.0,1.0,64,0.00,,BKN060,0.00,VWS V14.01,2013-08-17 21:44:00,
2013-08-17 17:49:00,76.8,61.4,30.20,SE,134,0.0,1.0,59,0.00,,BKN060,0.00,VWS V14.01,2013-08-17 21:49:00,
2013-08-17 17:54:00,76.7,61.3,30.20,ESE,121,0.0,1.0,59,0.00,,BKN060,0.00,VWS V14.01,2013-08-17 21:54:00,
2013-08-17 17:59:00,76.7,62.7,30.20,ESE,117,0.0,1.0,62,0.00,,BKN060,0.00,VWS V14.01,2013-08-17 21:59:00,
2013-08-17 18:04:00,76.5,63.0,30.20,ESE,110,0.0,1.0,63,0.00,,CLR,0.00,VWS V14.01,2013-08-17 22:04:00,
2013-08-17 18:10:00,76.1,62.6,30.19,ESE,121,0.0,1.0,63,0.00,,CLR,0.00,VWS V14.01,2013-08-17 22:10:00,
2013-08-17 18:15:00,76.1,63.9,30.19,ESE,120,0.0,0.0,66,0.00,,CLR,0.00,VWS V14.01,2013-08-17 22:15:00,
2013-08-17 18:20:00,75.8,62.8,30.20,ESE,120,0.0,0.0,64,0.00,,CLR,0.00,VWS V14.01,2013-08-17 22:20:00,
2013-08-17 18:25:00,75.7,63.1,30.20,East,98,0.0,1.0,65,0.00,,CLR,0.00,VWS V14.01,2013-08-17 22:25:00,
2013-08-17 18:30:00,75.8,64.9,30.19,East,98,0.0,0.0,69,0.00,,CLR,0.00,VWS V14.01,2013-08-17 22:30:00,
2013-08-17 18:35:00,75.6,63.9,30.19,East,98,0.0,0.0,67,0.00,,CLR,0.00,VWS V14.01,2013-08-17 22:35:00,
2013-08-17 18:40:00,75.3,62.7,30.19,East,99,0.0,0.0,65,0.00,,CLR,0.00,VWS V14.01,2013-08-17 22:40:00,
2013-08-17 18:45:00,75.2,65.2,30.19,East,99,0.0,0.0,71,0.00,,CLR,0.00,VWS V14.01,2013-08-17 22:45:00,
2013-08-17 18:50:00,74.8,66.3,30.20,East,99,0.0,0.0,75,0.00,,CLR,0.00,VWS V14.01,2013-08-17 22:50:00,
2013-08-17 18:55:00,74.5,67.2,30.20,East,99,0.0,0.0,78,0.00,,CLR,0.00,VWS V14.01,2013-08-17 22:55:00,
2013-08-17 19:00:00,73.6,67.1,30.20,ESE,108,0.0,0.0,80,0.00,,CLR,0.00,VWS V14.01,2013-08-17 23:00:00,
2013-08-17 19:05:00,72.8,67.3,30.20,ESE,108,0.0,0.0,83,0.00,,CLR,0.00,VWS V14.01,2013-08-17 23:05:00,
2013-08-17 19:10:00,71.9,65.4,30.20,ESE,109,0.0,0.0,80,0.00,,CLR,0.00,VWS V14.01,2013-08-17 23:10:00,
2013-08-17 19:15:00,71.2,65.4,30.20,ESE,108,0.0,0.0,82,0.00,,CLR,0.00,VWS V14.01,2013-08-17 23:15:00,
2013-08-17 19:20:00,70.5,65.4,30.20,ESE,108,0.0,0.0,84,0.00,,CLR,0.00,VWS V14.01,2013-08-17 23:20:00,
2013-08-17 19:25:00,69.9,65.5,30.20,ESE,108,0.0,0.0,86,0.00,,CLR,0.00,VWS V14.01,2013-08-17 23:25:00,
2013-08-17 19:30:00,69.3,64.9,30.20,ESE,109,0.0,0.0,86,0.00,,CLR,0.00,VWS V14.01,2013-08-17 23:30:00,
2013-08-17 19:35:00,68.4,64.4,30.20,ESE,108,0.0,0.0,87,0.00,,CLR,0.00,VWS V14.01,2013-08-17 23:35:00,
2013-08-17 19:40:00,67.6,63.9,30.20,ESE,109,0.0,0.0,88,0.00,,CLR,0.00,VWS V14.01,2013-08-17 23:40:00,
2013-08-17 19:45:00,67.2,63.2,30.20,ESE,108,0.0,1.0,87,0.00,,CLR,0.00,VWS V14.01,2013-08-17 23:45:00,
2013-08-17 19:50:00,67.3,63.0,30.20,ESE,108,0.0,0.0,86,0.00,,CLR,0.00,VWS V14.01,2013-08-17 23:50:00,
2013-08-17 19:55:00,66.9,62.6,30.20,ESE,110,0.0,0.0,86,0.00,,CLR,0.00,VWS V14.01,2013-08-17 23:55:00,
2013-08-17 20:00:00,66.6,62.6,30.20,ESE,110,0.0,0.0,87,0.00,,CLR,0.00,VWS V14.01,2013-08-18 00:00:00,
2013-08-17 20:05:00,66.7,62.7,30.20,ESE,110,0.0,0.0,87,0.00,,SCT060,0.00,VWS V14.01,2013-08-18 00:05:00,
2013-08-17 20:10:00,66.7,62.7,30.20,ESE,108,0.0,0.0,87,0.00,,SCT060,0.00,VWS V14.01,2013-08-18 00:10:00,
2013-08-17 20:15:00,66.6,62.6,30.21,ESE,109,0.0,0.0,87,0.00,,SCT060,0.00,VWS V14.01,2013-08-18 00:15:00,
2013-08-17 20:20:00,66.3,62.0,30.21,ESE,108,0.0,0.0,86,0.00,,SCT060,0.00,VWS V14.01,2013-08-18 00:20:00,
2013-08-17 20:25:00,66.0,62.0,30.21,ESE,108,0.0,0.0,87,0.00,,SCT060,0.00,VWS V14.01,2013-08-18 00:25:00,
2013-08-17 20:30:00,65.8,61.2,30.21,ESE,108,0.0,0.0,85,0.00,,SCT060,0.00,VWS V14.01,2013-08-18 00:30:00,
2013-08-17 20:35:00,65.7,61.4,30.21,SE,129,0.0,0.0,86,0.00,,SCT060,0.00,VWS V14.01,2013-08-18 00:35:00,
2013-08-17 20:40:00,65.3,61.0,30.21,SE,125,0.0,0.0,86,0.00,,SCT060,0.00,VWS V14.01,2013-08-18 00:40:00,
2013-08-17 20:45:00,65.3,61.0,30.21,SE,125,0.0,0.0,86,0.00,,SCT060,0.00,VWS V14.01,2013-08-18 00:45:00,
2013-08-17 20:50:00,65.4,60.5,30.21,SE,125,0.0,0.0,84,0.00,,SCT060,0.00,VWS V14.01,2013-08-18 00:50:00,
2013-08-17 20:55:00,65.8,60.8,30.21,SE,125,0.0,0.0,84,0.00,,SCT060,0.00,VWS V14.01,2013-08-18 00:55:00,
2013-08-17 21:00:00,65.9,60.6,30.21,ESE,105,0.0,0.0,83,0.00,,SCT060,0.00,VWS V14.01,2013-08-18 01:00:00,
2013-08-17 21:06:00,65.8,61.5,30.22,East,93,0.0,0.0,86,0.00,,CLR,0.00,VWS V14.01,2013-08-18 01:06:00,
2013-08-17 21:11:00,65.6,61.0,30.22,East,94,0.0,0.0,85,0.00,,CLR,0.00,VWS V14.01,2013-08-18 01:11:00,
2013-08-17 21:16:00,65.5,60.9,30.22,East,101,0.0,0.0,85,0.00,,CLR,0.00,VWS V14.01,2013-08-18 01:16:00,
2013-08-17 21:21:00,65.0,60.7,30.22,East,101,0.0,0.0,86,0.00,,CLR,0.00,VWS V14.01,2013-08-18 01:21:00,
2013-08-17 21:26:00,65.0,60.7,30.22,East,101,0.0,0.0,86,0.00,,CLR,0.00,VWS V14.01,2013-08-18 01:26:00,
2013-08-17 21:31:00,65.3,60.7,30.22,ESE,122,0.0,1.0,85,0.00,,CLR,0.00,VWS V14.01,2013-08-18 01:31:00,
2013-08-17 21:36:00,65.7,60.7,30.22,SE,139,0.0,1.0,84,0.00,,CLR,0.00,VWS V14.01,2013-08-18 01:36:00,
2013-08-17 21:41:00,66.0,60.7,30.22,SE,129,0.0,0.0,83,0.00,,CLR,0.00,VWS V14.01,2013-08-18 01:41:00,
2013-08-17 21:46:00,66.3,61.0,30.22,SE,138,0.0,1.0,83,0.00,,CLR,0.00,VWS V14.01,2013-08-18 01:46:00,
2013-08-17 21:51:00,66.6,60.9,30.22,SE,139,0.0,1.0,82,0.00,,CLR,0.00,VWS V14.01,2013-08-18 01:51:00,
2013-08-17 21:56:00,66.8,60.8,30.22,SSE,148,0.0,1.0,81,0.00,,CLR,0.00,VWS V14.01,2013-08-18 01:56:00,
2013-08-17 22:01:00,66.9,60.9,30.22,SE,146,0.0,1.0,81,0.00,,CLR,0.00,VWS V14.01,2013-08-18 02:01:00,
2013-08-17 22:07:00,67.0,60.6,30.22,SE,132,0.0,0.0,80,0.00,,CLR,0.00,VWS V14.01,2013-08-18 02:07:00,
2013-08-17 22:12:00,66.8,60.8,30.22,SE,138,0.0,0.0,81,0.00,,CLR,0.00,VWS V14.01,2013-08-18 02:12:00,
2013-08-17 22:17:00,66.9,60.9,30.22,SE,132,0.0,0.0,81,0.00,,CLR,0.00,VWS V14.01,2013-08-18 02:17:00,
2013-08-17 22:22:00,66.8,60.8,30.22,SE,131,0.0,0.0,81,0.00,,CLR,0.00,VWS V14.01,2013-08-18 02:22:00,
2013-08-17 22:27:00,66.6,60.9,30.22,SE,129,0.0,0.0,82,0.00,,CLR,0.00,VWS V14.01,2013-08-18 02:27:00,
2013-08-17 22:32:00,66.5,60.8,30.22,SE,124,0.0,0.0,82,0.00,,CLR,0.00,VWS V14.01,2013-08-18 02:32:00,
2013-08-17 22:37:00,66.5,60.8,30.22,SE,134,0.0,0.0,82,0.00,,CLR,0.00,VWS V14.01,2013-08-18 02:37:00,
2013-08-17 22:42:00,66.4,60.7,30.22,SE,139,0.0,0.0,82,0.00,,CLR,0.00,VWS V14.01,2013-08-18 02:42:00,
2013-08-17 22:47:00,66.0,60.7,30.23,SSE,148,0.0,1.0,83,0.00,,CLR,0.00,VWS V14.01,2013-08-18 02:47:00,
2013-08-17 22:52:00,65.7,60.7,30.23,SE,129,0.0,2.0,84,0.00,,CLR,0.00,VWS V14.01,2013-08-18 02:52:00,
2013-08-17 22:57:00,65.8,60.8,30.22,SE,139,1.0,4.0,84,0.00,,CLR,0.00,VWS V14.01,2013-08-18 02:57:00,
2013-08-17 23:03:00,66.0,61.0,30.23,ESE,115,0.0,2.0,84,0.00,,CLR,0.00,VWS V14.01,2013-08-18 03:03:00,
2013-08-17 23:08:00,66.0,61.0,30.23,SSE,165,1.0,4.0,84,0.00,,CLR,0.00,VWS V14.01,2013-08-18 03:08:00,
2013-08-17 23:13:00,66.2,60.5,30.23,ESE,112,2.0,6.0,82,0.00,,CLR,0.00,VWS V14.01,2013-08-18 03:13:00,
2013-08-17 23:18:00,66.3,60.3,30.23,SE,145,0.0,5.0,81,0.00,,CLR,0.00,VWS V14.01,2013-08-18 03:18:00,
2013-08-17 23:23:00,66.2,60.2,30.23,SE,139,0.0,3.0,81,0.00,,CLR,0.00,VWS V14.01,2013-08-18 03:23:00,
2013-08-17 23:28:00,66.1,60.5,30.23,SE,134,1.0,2.0,82,0.00,,CLR,0.00,VWS V14.01,2013-08-18 03:28:00,
2013-08-17 23:33:00,66.0,60.3,30.22,SE,136,0.0,2.0,82,0.00,,CLR,0.00,VWS V14.01,2013-08-18 03:33:00,
2013-08-17 23:38:00,65.8,60.2,30.22,SE,139,0.0,2.0,82,0.00,,CLR,0.00,VWS V14.01,2013-08-18 03:38:00,
2013-08-17 23:43:00,65.8,60.2,30.22,SE,139,0.0,1.0,82,0.00,,CLR,0.00,VWS V14.01,2013-08-18 03:43:00,
2013-08-17 23:48:00,65.5,60.2,30.22,SSE,165,1.0,2.0,83,0.00,,CLR,0.00,VWS V14.01,2013-08-18 03:48:00,
2013-08-17 23:53:00,65.6,60.3,30.22,SE,146,1.0,2.0,83,0.00,,CLR,0.00,VWS V14.01,2013-08-18 03:53:00,
2013-08-17 23:58:00,65.2,60.2,30.22,ESE,120,0.0,2.0,84,0.00,,CLR,0.00,VWS V14.01,2013-08-18 03:58:00,